Location: Unspecified
(0.0000°N, 0.0000°E)
Time: 03:19:02
(UTC+00:00)

Hubble Space Telescope - Pass Details

Date: 28 February 2021
Orbit: 536 x 539 km, 28.5° (Epoch: 24 February)

Event Time Altitude Azimuth Distance (km) Brightness Sun altitude
Rises 19:32:56 0° 278° (W) 2,664 5.7 -19.9°
Reaches altitude 10° 19:36:32 10° 311° (NW) 1,772 3.9 -20.8°
Maximum altitude 19:38:05 12° 333° (NNW) 1,658 3.5 -21.2°
Drops below altitude 10° 19:39:38 10° 355° (N) 1,771 3.4 -21.6°
Enters shadow 19:39:53 - 359° (N) 1,811 3.4 -21.7°
